Weather History for KTRM - December, 2011

Change the Weather History Date:

Tuesday, December 13, 2011

  Actual Average Record
Temperature  
Mean Temperature 52 °F 53 °F  
Max Temperature 61 °F 70 °F 87 °F (1952)
Min Temperature 42 °F 36 °F 24 °F (1997)
Degree Days  
Heating Degree Days 13 12  
Month to date heating degree days 202 148  
Since 1 July heating degree days 416 315  
Cooling Degree Days 0 0  
Month to date cooling degree days 0 0  
Year to date cooling degree days 3797 3686  
Growing Degree Days 2 (Base 50)    
Moisture  
Dew Point 43 °F    
Average Humidity 74    
Maximum Humidity 96    
Minimum Humidity 51    
Precipitation  
Precipitation T in 0.01 in 0.14 in (2012)
Month to date precipitation 0.06 0.13  
Year to date precipitation 1.90 2.98  
Since 1 July precipitation 0.98 1.16  
Snow  
Snow 0.00 in - - ()
Month to date snowfall 0.0  
Year to date snowfall 0.0  
Since 1 July snowfall 0.0  
Snow Depth 0.00 in    
Sea Level Pressure  
Sea Level Pressure 29.92 in    
Wind  
Wind Speed 4 mph (NW)    
Max Wind Speed 12 mph    
Max Gust Speed 15 mph    
Visibility 9 miles    
Events      
T = Trace of Precipitation, MM = Missing Value Source: NWS Daily Summary

Daily Weather History Graph

Daily Weather History Graph

Search for Another Location

Airport or City:

Trip Planner

Search our weather history database for the weather conditions in past years. The results will help you decide how hot, cold, wet, or windy it might be!

Date:

Astronomy

Dec. 13, 2011 Rise Set
Actual Time 6:40 AM PST 4:37 PM PST
Civil Twilight 6:12 AM PST 5:04 PM PST
Nautical Twilight 5:41 AM PST 5:35 PM PST
Astronomical Twilight 5:11 AM PST 6:06 PM PST
Moon 7:51 PM PST (12/13) 8:57 AM PST (12/13)
Length of Visible Light 10h 52m
Length of Day
9h 57m
Waning Gibbous, 90% of the Moon is Illuminated
Dec 13
Waning Gibbous
Dec 17
Last Quarter
Dec 24
New
Dec 31
First Quarter
Jan 8
Full

Hourly Weather History & Observations

Time (PST) Temp. Windchill Dew Point Humidity Pressure Visibility Wind Dir Wind Speed Gust Speed Precip Events Conditions
12:52 AM 48.0 °F - 45.0 °F 89% 29.88 in 7.0 mi Calm Calm - N/A   Scattered Clouds
1:52 AM 44.1 °F - 43.0 °F 96% 29.88 in 6.0 mi Calm Calm - N/A   Clear
2:52 AM 42.1 °F - 41.0 °F 96% 29.88 in 5.0 mi Calm Calm - N/A   Scattered Clouds
3:52 AM 45.0 °F - 43.0 °F 93% 29.88 in 7.0 mi Calm Calm - N/A   Clear
4:52 AM 44.1 °F - 42.1 °F 93% 29.88 in 6.0 mi Calm Calm - N/A   Scattered Clouds
5:52 AM 43.0 °F - 41.0 °F 93% 29.89 in 6.0 mi Calm Calm - N/A   Overcast
6:52 AM 46.9 °F - 43.0 °F 86% 29.90 in 8.0 mi NNW 3.5 mph - N/A   Overcast
7:52 AM 48.9 °F - 44.1 °F 83% 29.91 in 10.0 mi NW 3.5 mph - N/A   Overcast
8:52 AM 52.0 °F - 46.9 °F 83% 29.92 in 10.0 mi North 4.6 mph - 0.00 in   Overcast
9:52 AM 54.0 °F - 46.9 °F 77% 29.93 in 10.0 mi NNW 6.9 mph - 0.00 in   Partly Cloudy
10:52 AM 55.9 °F - 46.0 °F 69% 29.91 in 10.0 mi NNW 8.1 mph - N/A   Overcast
11:52 AM 59.0 °F - 45.0 °F 60% 29.88 in 10.0 mi NW 6.9 mph - N/A   Overcast
12:52 PM 61.0 °F - 43.0 °F 52% 29.87 in 10.0 mi NW 10.4 mph - N/A   Partly Cloudy
1:52 PM 61.0 °F - 42.1 °F 50% 29.87 in 10.0 mi WNW 8.1 mph - N/A   Overcast
2:52 PM 61.0 °F - 42.1 °F 50% 29.88 in 10.0 mi WNW 4.6 mph - 0.00 in   Overcast
3:52 PM 60.1 °F - 42.1 °F 51% 29.89 in 10.0 mi WNW 4.6 mph - N/A   Partly Cloudy
4:52 PM 55.9 °F - 42.1 °F 60% 29.91 in 10.0 mi Calm Calm - N/A   Mostly Cloudy
5:52 PM 54.0 °F - 43.0 °F 66% 29.93 in 10.0 mi Calm Calm - N/A   Overcast
6:52 PM 48.0 °F - 39.9 °F 74% 29.95 in 10.0 mi Calm Calm - N/A   Clear
7:52 PM 50.0 °F - 42.1 °F 74% 29.97 in 10.0 mi NNE 4.6 mph - N/A   Overcast
8:52 PM 45.0 °F 43.5 °F 39.0 °F 80% 30.00 in 10.0 mi SW 3.5 mph - N/A   Clear
9:52 PM 46.0 °F 43.9 °F 43.0 °F 89% 30.03 in 10.0 mi ESE 4.6 mph - N/A   Clear
10:52 PM 46.0 °F - 43.0 °F 89% 30.05 in 10.0 mi Calm Calm - N/A   Clear
11:52 PM 41.0 °F - 39.9 °F 96% 30.06 in 10.0 mi Calm Calm - N/A   Clear